Flag for Bermuda Weather past 2 weeks in Hamilton, Bermuda

70 °F

Passing clouds.

Feels Like: 70 °F
Forecast: 70 / 74 °F
Wind: 10 mph from Northeast

Location: Bermuda

Current Time: Nov 30, 2015 at 6:04:13 AM

Latest Report: Nov 30, 2015 at 4:55 AM

Visibility: N/A

Pressure: 30.04 "Hg

Humidity: 78%

Dew point: 63 °F

Location of HamiltonLocation

Historic Weather in Hamilton — Graph


Hamilton temperature yesterday

Maximum temperature yesterday: 73 °F (at 9:55 AM)
Minimum temperature yesterday: 70 °F (at 11:55 AM)
Average temperature yesterday: 71 °F

Past Weeks' High & Low Weather Summary

High77 °F (Nov 23, 9:55 AM)94% (Nov 23, 3:55 PM)30.45 "Hg (Nov 23, 3:55 PM)
Low64 °F (Nov 18, 2:55 AM)40% (Nov 18, 5:55 AM)29.86 "Hg (Nov 23, 2:55 PM)
Average70 °F70%30.15 "Hg
* Reported Nov 15 4:55 AM — Nov 30 4:55 AM, Hamilton, Weather by CustomWeather, © 2015

Note: Actual official high and low records may vary slightly from our data, if they occured in-between our weather recording intervals... More about our weather records


Hamilton weather history for previous 24 hours

Time TempWeatherWind HumidityBarometerVisibility
4:55 AM
Mon, Nov 30
70 °FPassing clouds.10 mph78%30.04 "HgN/A
3:55 AM70 °FPassing clouds.9 mph83%30.04 "HgN/A
2:55 AM70 °FPassing clouds.8 mph83%30.01 "HgN/A
1:55 AM70 °FPartly cloudy.9 mph83%30.01 "HgN/A
12:55 AM72 °FPartly cloudy.9 mph83%30.04 "HgN/A
11:55 PM
Sun, Nov 29
72 °FPartly cloudy.10 mph83%30.01 "HgN/A
10:55 PM72 °FPartly cloudy.9 mph83%30.04 "HgN/A
9:55 PM70 °FPartly cloudy.6 mph94%30.04 "HgN/A
7:55 PM72 °FScattered showers. Partly cloudy.7 mph88%30.01 "HgN/A
6:55 PM70 °FPartly cloudy.5 mph94%30.01 "HgN/A
5:55 PM70 °FPassing clouds.6 mph94%29.98 "HgN/A
4:55 PM72 °FPartly sunny.8 mph88%30.01 "HgN/A
3:55 PM72 °FBroken clouds.10 mph88%29.98 "HgN/A
2:55 PM70 °FSprinkles. Partly sunny.8 mph94%29.98 "HgN/A
1:55 PM70 °FSprinkles. Broken clouds.7 mph94%29.98 "HgN/A
1:04 PM70 °FRain showers. Mostly cloudy.9 mph94%30.01 "Hg2 mi
12:55 PM72 °FRain showers. More clouds than sun.8 mph88%30.01 "Hg2 mi
11:55 AM70 °FSprinkles. Fog.10 mph94%30.04 "Hg3 mi
10:55 AM72 °FSprinkles. Partly sunny.8 mph94%30.04 "Hg6 mi
9:55 AM73 °FScattered showers. Broken clouds.5 mph94%30.07 "HgN/A
8:55 AM72 °FScattered showers. Partly sunny.8 mph94%30.04 "HgN/A
7:55 AM72 °FBroken clouds.6 mph94%30.04 "HgN/A
6:55 AM72 °FScattered showers. Mostly cloudy.5 mph94%30.01 "HgN/A
Weather by CustomWeather, © 2015

See weather overviewHow to use our weather pages